Location: Newark
(42.7133°N, 87.7910°W)
Time: 11:38:59
(UTC+00:00)

Tiros 1 - Pass Details

Date: 26 October 2019
Orbit: 630 x 664 km, 48.4° (Epoch: 17 November)

Event Time Altitude Azimuth Distance (km) Brightness Sun altitude
Exits shadow 10:52:23 28° 285° (WNW) 1,244 8.0 -16.2°
Maximum altitude 10:54:50 64° 212° (SSW) 732 7.2 -15.8°
Drops below altitude 10° 10:59:35 10° 131° (SE) 2,074 10.5 -14.9°
Sets 11:01:56 0° 129° (SE) 2,983 11.5 -14.5°
